Content
SEND FEEDBACK

Daily
Averages
Monthly
Summary
United States of America

CARTERSVILLE, VIRGINIA


Home > North America > United States > Virginia
Elevation: 223 feet     Latitude: 37 42N     Longitude: 078 18W

WEATHER
 
SELECT A DAY
Number of Records: 76,804;   Date Range: 2/1/11 - 7/21/14
 
SHARE

PRINT THIS DATA

[ ← Previous Day ]
WEATHER ALMANAC - FEBRUARY 13, 2013
[ Next Day → ]
[ °C ]   °F
Weather ElementAverageHighLow
Temperature43.4 °F50 °F (3:35 am)35.6 °F (10:55 pm)
Dewpoint33.3 °F41 °F (3:35 pm)21.2 °F (12:35 am)
Humidity70.6 %100 % (8:35 pm)34 % (12:35 am)
Barometer29.75 in29.91 in (12:35 am)29.62 in (4:55 pm)
Wind Speed2.4 mph8.1 mph (6:35 am)
Weather ElementAverage
Visibility6.9 mi
Wind DirectionENE (54.5 °)

Weather ElementTotal
Precipitation0.09 in
Heating Degree Days22.2 (Base 65)
Averaged from 71 records on February 13, 2013
WEATHER CONDITIONS BREAKOUT
WIND DIRECTION BREAKOUT
WEATHER BY HOUR - FEBRUARY 13, 2013
[ °C ]   °F
Local TimeTemperatureDewpointHumidityBarometerVisibilityWind DirectionWind SpeedGust SpeedPrecipitationEventsConditions
12:35 AM48.2 °F21.2 °F34 %29.91 in10.0 miWSW (250°)3.5 mphMostly Cloudy
12:55 AM48.2 °F21.2 °F34 %29.90 in10.0 miWSW (250°)3.5 mphMostly Cloudy
1:15 AM44.6 °F26.6 °F49 %29.88 in10.0 miCalmOvercast
1:35 AM44.6 °F26.6 °F49 %29.87 in10.0 miCalmOvercast
1:55 AM46.4 °F24.8 °F43 %29.89 in10.0 miSW (220°)3.5 mphOvercast
2:15 AM48.2 °F24.8 °F40 %29.88 in10.0 miSW (230°)4.6 mphOvercast
2:35 AM48.2 °F24.8 °F40 %29.85 in10.0 miCalmOvercast
2:55 AM48.2 °F28.4 °F46 %29.86 in10.0 miSW (230°)4.6 mphOvercast
3:15 AM48.2 °F30.2 °F50 %29.86 in10.0 miCalmOvercast
3:35 AM50.0 °F30.2 °F47 %29.85 in10.0 miCalmOvercast
3:55 AM50.0 °F30.2 °F47 %29.84 in10.0 miCalmOvercast
4:15 AM48.2 °F30.2 °F50 %29.83 in10.0 miCalmOvercast
4:35 AM48.2 °F32.0 °F54 %29.81 in10.0 miCalmOvercast
4:55 AM48.2 °F32.0 °F54 %29.81 in10.0 miCalmOvercast
5:15 AM46.4 °F33.8 °F62 %29.80 in10.0 miCalmOvercast
5:35 AM48.2 °F32.0 °F54 %29.80 in10.0 miNorth (360°)3.5 mphOvercast
5:55 AM46.4 °F33.8 °F62 %29.80 in10.0 miNorth (10°)3.5 mphOvercast
6:15 AM48.2 °F30.2 °F50 %29.79 in10.0 miNorth (10°)3.5 mphOvercast
6:35 AM46.4 °F26.6 °F46 %29.81 in10.0 miNNE (20°)8.1 mphOvercast
6:55 AM46.4 °F26.6 °F46 %29.81 in10.0 miNNE (20°)5.8 mphOvercast
7:15 AM44.6 °F28.4 °F53 %29.81 in10.0 miNNE (30°)5.8 mphLight Drizzle
7:35 AM44.6 °F26.6 °F49 %29.81 in10.0 miNNE (20°)5.8 mphMostly Cloudy
7:55 AM44.6 °F26.6 °F49 %29.82 in10.0 miNNE (20°)6.9 mphRainLight Rain
8:15 AM44.6 °F28.4 °F53 %29.81 in10.0 miNNE (30°)6.9 mphMostly Cloudy
8:35 AM42.8 °F28.4 °F57 %29.82 in10.0 miNNE (30°)8.1 mphScattered Clouds
8:55 AM42.8 °F28.4 °F57 %29.82 in10.0 miNNE (30°)6.9 mphLight Drizzle
9:15 AM42.8 °F28.4 °F57 %29.83 in10.0 miNE (40°)3.5 mphMostly Cloudy
9:35 AM42.8 °F28.4 °F57 %29.83 in10.0 miNNE (30°)3.5 mphDrizzle
9:55 AM42.8 °F28.4 °F57 %29.82 in10.0 miNNE (20°)3.5 mphRainRain
10:15 AM42.8 °F30.2 °F61 %29.80 in10.0 miNorth (10°)3.5 mphRainLight Rain
10:35 AM42.8 °F30.2 °F61 %29.80 in10.0 miNNE (20°)4.6 mphOvercast
10:55 AM42.8 °F30.2 °F61 %29.78 in10.0 miNorth (10°)3.5 mphOvercast
11:15 AM44.6 °F30.2 °F57 %29.78 in10.0 miNNE (30°)4.6 mphOvercast
11:35 AM44.6 °F30.2 °F57 %29.77 in10.0 miCalmOvercast
11:55 AM44.6 °F32.0 °F61 %29.76 in10.0 miCalmDrizzle
12:15 PM44.6 °F33.8 °F66 %29.73 in5.0 miENE (70°)3.5 mphLight Drizzle
12:35 PM44.6 °F33.8 °F66 %29.73 in10.0 miCalmOvercast
12:55 PM44.6 °F35.6 °F71 %29.70 in7.0 miCalmRainLight Rain
1:15 PM44.6 °F35.6 °F71 %29.69 in7.0 miCalmOvercast
1:35 PM44.6 °F35.6 °F71 %29.66 in7.0 miNNE (20°)3.5 mphOvercast
1:55 PM42.8 °F39.2 °F87 %29.65 in3.0 miNNE (20°)3.5 mphOvercast
2:15 PM42.8 °F39.2 °F87 %29.64 in4.0 miNNE (20°)3.5 mphOvercast
2:35 PM42.8 °F39.2 °F87 %29.64 in3.0 miNorth (10°)3.5 mphOvercast
2:55 PM42.8 °F39.2 °F87 %29.63 in1.8 miNNE (20°)3.5 mphDrizzle
3:15 PM42.8 °F39.2 °F87 %29.64 in1.5 miCalmDrizzle
3:35 PM42.8 °F41.0 °F93 %29.63 in1.5 miNNE (30°)4.6 mphDrizzle
3:55 PM42.8 °F41.0 °F93 %29.63 in1.8 miNNE (20°)4.6 mphLight Drizzle
4:15 PM42.8 °F39.2 °F87 %29.63 in2.0 miNNE (30°)5.8 mph0.01 inRainLight Rain
4:35 PM42.8 °F39.2 °F87 %29.63 in1.2 miNorth (350°)3.5 mph0.01 inDrizzle
4:55 PM41.0 °F39.2 °F93 %29.62 in1.2 miNorth (10°)3.5 mphLight Drizzle
5:15 PM41.0 °F39.2 °F93 %29.64 in1.2 miNNW (330°)3.5 mphOvercast
5:35 PM41.0 °F39.2 °F93 %29.64 in2.0 miCalm0.01 inRainLight Rain
5:55 PM41.0 °F39.2 °F93 %29.64 in2.5 miCalm0.01 inOvercast
6:15 PM41.0 °F39.2 °F93 %29.65 in2.5 miCalm0.01 inOvercast
6:35 PM41.0 °F39.2 °F93 %29.64 in2.5 miCalm0.01 inOvercast
6:55 PM41.0 °F39.2 °F93 %29.65 in4.0 miCalmOvercast
7:15 PM41.0 °F39.2 °F93 %29.66 in5.0 miCalmOvercast
7:35 PM41.0 °F39.2 °F93 %29.67 in5.0 miCalmOvercast
7:55 PM41.0 °F39.2 °F93 %29.68 in3.0 miCalmDrizzle
8:15 PM41.0 °F39.2 °F93 %29.69 in3.0 miCalmDrizzle
8:35 PM39.2 °F39.2 °F100 %29.71 in2.5 miNNW (340°)4.6 mph0.02 inRainRain
8:55 PM39.2 °F39.2 °F100 %29.71 in5.0 miNNW (330°)4.6 mphRainRain
9:15 PM39.2 °F37.4 °F93 %29.72 in7.0 miNorth (350°)3.5 mphOvercast
9:35 PM39.2 °F37.4 °F93 %29.73 in10.0 miCalmOvercast
9:55 PM39.2 °F37.4 °F93 %29.73 in7.0 miCalmOvercast
10:15 PM39.2 °F37.4 °F93 %29.74 in5.0 miCalmMostly Cloudy
10:35 PM37.4 °F35.6 °F93 %29.75 in4.0 miCalmScattered Clouds
10:55 PM35.6 °F35.6 °F100 %29.75 in2.5 miCalmScattered Clouds
11:15 PM35.6 °F33.8 °F93 %29.77 in1.8 miCalmMostly Cloudy
11:35 PM37.4 °F35.6 °F93 %29.78 in3.0 miCalmScattered Clouds
11:55 PM37.4 °F35.6 °F93 %29.79 in4.0 miCalm0.01 inScattered Clouds
Hourly data recorded from KFVX, located miles away from Cartersville, Virginia







STORIES FROM OUR PARTNERS